Regional Weather Roundup
Issued by NWS

Home | Current Version | Previous Version | Graphics & Text | Print | Product List | Glossary On
Versions: 1 2 3 4 5 6 7 8 9 10 11 12 13 14 15 16 17 18 19 20 21 22 23 24 25 26 27 28 29 30 31 32 33 34 35 36 37 38 39 40 41 42 43 44 45 46 47 48 49
000
ASUS45 KBOU 152307
RWRCO

WEATHER ROUNDUP FOR COLORADO
NATIONAL WEATHER SERVICE DENVER/BOULDER CO
500 PM MDT MON SEP 15 2014

NOTE: "FAIR" INDICATES FEW OR NO CLOUDS BELOW 12000 FEET WITH NO
SIGNIFICANT WEATHER AND/OR OBSTRUCTIONS TO VISIBILITY.

COZ001>005-013-030-031-160000-
...NORTHWEST COLORADO...

CITY           SKY/WX    TMP DP  RH WIND       PRES   REMARKS
CRAIG          MOSUNNY   79  39  23 SW14      30.22S
HAYDEN         MOSUNNY   79  30  17 W12       30.24S
MEEKER         PTSUNNY   75  39  27 SW14G25   30.26R
MOUNT WERNER   NOT AVBL
STEAMBOAT SPGS MOSUNNY   77  32  19 W10       30.26S
WALDEN         MOSUNNY   70  30  23 NW9       30.36S
$$

COZ006>008-011-160000-
...WEST CENTRAL VALLEYS...

CITY           SKY/WX    TMP DP  RH WIND       PRES   REMARKS
GRAND JUNCTION MOSUNNY   84  40  21 W8        30.12S
MONTROSE       MOSUNNY   85  33  15 NW12      30.19S
EAGLE          MOSUNNY   79  34  19 W14       30.28S
RIFLE          PTSUNNY   80  38  22 W3        30.18F
DELTA          MOSUNNY   88  31  13 W7        30.14S
NUCLA          MOSUNNY   82  34  17 N6        30.22F
$$

COZ017>023-064>068-160000-
...SOUTHWEST COLORADO...

CITY           SKY/WX    TMP DP  RH WIND       PRES   REMARKS
DURANGO        MOSUNNY   79  37  22 W8        30.23S
CORTEZ         SUNNY     84  35  17 S9        30.19F
PAGOSA SPRINGS PTSUNNY   77  26  15 CALM      30.31S
TELLURIDE      NOT AVBL
WOLF CREEK PAS PTSUNNY   55  32  41 W7G17     30.64R
$$

COZ009-010-012-014-032>034-037-058>063-160000-
...CENTRAL COLORADO...

CITY           SKY/WX    TMP DP  RH WIND       PRES   REMARKS
ASPEN          MOSUNNY   75  33  21 NW10G17   30.33S
BUENA VISTA    PTSUNNY   72  28  19 NW6       30.35S
COPPER MTN     CLOUDY    59  27  29 W24G33    30.66R
BERTHOUD PASS  CLOUDY    46  45  93 NW15G25   30.70R
COTTONWOOD PAS CLOUDY    64  27  24 SE7       30.50S
GUNNISON       MOSUNNY   73  30  20 N7        30.33S
KREMMLING      PTSUNNY   72  34  25 SE5       30.32F
LEADVILLE      PTSUNNY   60  29  30 S13       30.48S
MONARCH PASS   MOSUNNY   59  27  29 SW5       30.76R
SALIDA         MOSUNNY   75  40  28 E13G25    30.39S
SUNLIGHT       PTSUNNY   59  43  55 CALM      30.60S
WILKERSON PASS NOT AVBL
$$

COZ069>075-160000-
...SAN LUIS VALLEY/SANGRE DE CRISTO MOUNTAINS...

CITY           SKY/WX    TMP DP  RH WIND       PRES   REMARKS
ALAMOSA        MOSUNNY   75  29  18 SW5       30.31S
LA VETA PASS   NOT AVBL
SAGUACHE       NOT AVBL
$$

COZ035-036-038>040-160000-
...NORTHERN COLORADO FRONT RANGE...

CITY           SKY/WX    TMP DP  RH WIND       PRES   REMARKS
DENVER INTL AP MOSUNNY   73  51  46 E10       30.25F
DMNS CITY PARK   N/A     73  44  34 N6G13     30.24F
AURORA         MOSUNNY   74  52  44 SE2       30.25F
FRONT RANGE AP NOT AVBL
ERIE MUNI ARPT MOSUNNY   73  40  29 E5        30.24F
BOULDER MUN AP MOSUNNY   72  43  35 NE3       30.25S
CENTENNIAL     MOSUNNY   70  46  42 VRB5      30.26S
BROOMFIELD     MOSUNNY   72  41  33 VRB5      30.27F
FORT COLLINS   MOSUNNY   70  45  40 S9        30.24F
LONGMONT       MOSUNNY   68  44  41 N3        30.26F
$$

COZ041-046-047-076>085-087-088-160000-
...PIKES PEAK/PALMER DIVIDE AND SOUTHERN FOOTHILLS...

CITY           SKY/WX    TMP DP  RH WIND       PRES   REMARKS
COLO. SPRINGS  MOSUNNY   65  47  52 S13       30.34S
A. F. ACADEMY  MOSUNNY   64  48  55 S15G21    30.34S
ELLICOTT       NOT AVBL
FALCON         MOSUNNY   65  47  51 S14       30.37F
FORT CARSON    MOSUNNY   68  50  51 SE13      30.31S
LIMON          SUNNY     66  50  56 SE12G22   30.30S
MONUMENT HILL  MOSUNNY   64  46  52 S15G22    30.34S
TRINIDAD       PTSUNNY   62  51  67 E6        30.32F
$$

COZ042>045-048>051-090-091-160000-
...NORTHEAST COLORADO...

CITY           SKY/WX    TMP DP  RH WIND       PRES   REMARKS
GREELEY ARPT   SUNNY     72  46  40 SE7       30.24F
AKRON          SUNNY     66  50  56 S10       30.27F
BURLINGTON     PTSUNNY   65  49  56 SE6       30.28F
WRAY           SUNNY     69  44  41 E7        30.26F
STERLING       SUNNY     72  50  46 S12       30.23F
HOLYOKE        SUNNY     68  43  40 SE8       30.25F
FORT MORGAN    SUNNY     66  49  53 SE10      30.26F
$$

COZ086-089-092>099-160000-
...SOUTHEAST COLORADO...

CITY           SKY/WX    TMP DP  RH WIND       PRES   REMARKS
PUEBLO         MOSUNNY   70  51  51 SE13      30.26F
LA JUNTA       CLOUDY    64  53  67 E12       30.28F
LAMAR          CLOUDY    64  52  64 NE10      30.26F
SPRINGFIELD      N/A     59  53  80 NE12      30.29R
$$



USA.gov is the U.S. government's official web portal to all federal, state and local government web resources and services.